NIEUW!!! Volg onze weer- en natuurfoto's op Instagram @ weerstationmaaseik.be

WS Maaseik 1 Meer informatie WS Maaseik 1


WS Maaseik 2 Meer informatie WS Maaseik 2


Regen radar Meer informatie rain snow radar


Bezoek onze andere website:

Vorige versie
weerstation Maaseik


Bezoek ook eens deze sites:

Weerstation Geleen



Het weer levert geen direct gevaar op.    Er zijn geen waarschuwingen afgegeven.

15 daagse weersverwachting Hallein (AT)

  • Overzicht
  • Per uur
  • 15 dagen
  • Extra
  • Vergelijk
  • Kaarten
  • Dagkaart
  • Meer »
  • Info
  • Statistieken
  • Directe link
    Temp 6h Neerslag Wind  
 06:57     17:45    Daglengte: 10:48 Vandaag
19:00
 
1
 06:55     17:47    Daglengte: 10:52 Morgen
01:00
3.8 mm
2
07:00
1.6 mm
3
13:00
2.4 mm
4
19:00
5.3 mm
3
warningclass
 06:53     17:48    Daglengte: 10:55 Donderdag 27 Feb
01:00
6.4 mm
3
warningclass
07:00
-0°
4.2 mm
2
warningclass
13:00
 
2
19:00
2.9 mm
3
 06:51     17:50    Daglengte: 10:59 Vrijdag 28 Feb
01:00
10.0 mm
8
07:00
-0°
14.5 mm
6
warningclass
13:00
34.3 mm
5
Locatie info
Region: Salzburg
Latitude: 47.6815°N
Longitude: 13.0926°E
447 masl
Postcode: 5400
Temp/Neerslag /Baro Onweer/DauwpuntSneeuw
    Temp Baro 1h Neerslag Dauwpunt Wind UV BewolkingSneeuw  
 06:57     17:45    Daglengte: 10:48 Vandaag
17:00
10°
1002.9 hPa   2.4°
2
Windvlaag: 1.8 m/s
88%1 cm
18:00
Voelt als: 7.6°
1003.1 hPa
51%
2.8°
2
Windvlaag: 2.2 m/s
89%1 cm
19:00
Voelt als: 7.5°
1003.2 hPa
73%
3.4°
1
Windvlaag: 2.1 m/s
90%1 cm
20:00
Voelt als: 6.1°
1003.5 hPa 0.3 mm
78%
3.7°
1
Windvlaag: 2 m/s
88%1 cm
21:00
Voelt als: 5.5°
1003.1 hPa 0.7 mm
80%
3.6°
2
Windvlaag: 2.3 m/s
86%1 cm
22:00
Voelt als: 4.0°
1002.5 hPa 1.1 mm
80%
4.0°
2
Windvlaag: 2.3 m/s
84%1 cm
23:00
Voelt als: 2.9°
1001.4 hPa
79%
3.4°
2
Windvlaag: 2.4 m/s
84%1 cm
 06:55     17:47    Daglengte: 10:52 Morgen
00:00
Voelt als: 3.1°
1000.6 hPa 0.7 mm
80%
2.8°
2
Windvlaag: 2.4 m/s
78%1 cm
01:00
Voelt als: 2.1°
1000.5 hPa 1.0 mm
81%
1.6°
2
Windvlaag: 0.8 m/s
88%1 cm
02:00
Voelt als: 2.5°
1000.8 hPa 0.5 mm
78%
2.3°
2
Windvlaag: 0.7 m/s
85%1 cm
03:00
Voelt als: 2.9°
1000.0 hPa 0.3 mm
81%
2.5°
1
Windvlaag: 0.1 m/s
82%1 cm
04:00
Voelt als: 1.9°
999.1 hPa 0.2 mm
74%
2.9°
2
Windvlaag: -1.1 m/s
83%1 cm
05:00
Voelt als: 1.3°
998.7 hPa
71%
2.0°
2
Windvlaag: -1.1 m/s
84%1 cm
06:00
Voelt als: 0.8°
999.0 hPa 0.3 mm
81%
1.5°
2
Windvlaag: 0.5 m/s
86%1 cm
07:00
Voelt als: -0.5°
999.8 hPa 0.4 mm
82%
0.6°
3
Windvlaag: -1.5 m/s
87%1 cm
08:00
Voelt als: -0.9°
1000.8 hPa
82%
-2.1°
4
Windvlaag: -1.6 m/s
78%1 cm
09:00
Voelt als: -0.8°
1001.1 hPa 0.8 mm
82%
-3.6°
4
Windvlaag: -1.7 m/s
47%1 cm
10:00
Voelt als: -0.1°
1000.5 hPa 0.5 mm
79%
-5.6°
4
Windvlaag: -1 m/s
52%1 cm
11:00
Voelt als: 0.6°
1000.1 hPa 0.5 mm
77%
-6.3°
4
Windvlaag: -1.2 m/s
56%1 cm
12:00
Voelt als: 1.2°
999.6 hPa
79%
-6.0°
4
Windvlaag: -1.1 m/s
88%1 cm
13:00
Voelt als: 1.4°
999.4 hPa 0.6 mm
80%
-5.5°
4
Windvlaag: -2 m/s
88%1 cm
14:00
Voelt als: 1.0°
999.6 hPa 1.0 mm
82%
-5.2°
4
Windvlaag: -1.6 m/s
87%1 cm
15:00
Voelt als: 0.4°
999.9 hPa 0.8 mm
82%
-5.9°
5
Windvlaag: -1.5 m/s
89%1 cm
16:00
Voelt als: -0.8°
1001.0 hPa 0.4 mm
82%
-5.3°
5
Windvlaag: -1.6 m/s
87%1 cm
17:00
Voelt als: -1.5°
1002.1 hPa 1.0 mm
81%
-4.7°
4
Windvlaag: -1.4 m/s
88%3 cm
18:00
Voelt als: -2.0°
1003.4 hPa 1.1 mm
82%
-4.4°
3
Windvlaag: -1.1 m/s
86%4 cm
19:00
Voelt als: -2.2°
1004.8 hPa 1.1 mm
79%
-3.8°
3
Windvlaag: -0.4 m/s
89%4 cm warningclass
20:00
Voelt als: -2.7°
1005.9 hPa 0.9 mm
80%
-3.5°
4
Windvlaag: -0.6 m/s
80%4 cm warningclass
21:00
Voelt als: -3.0°
1006.7 hPa 0.8 mm
80%
-3.2°
4
Windvlaag: -0.9 m/s
82%4 cm warningclass
22:00
Voelt als: -3.3°
1007.6 hPa 1.4 mm
81%
-3.1°
3
Windvlaag: -1 m/s
87%4 cm warningclass
23:00
Voelt als: -3.2°
1008.3 hPa 1.1 mm
82%
-3.4°
3
Windvlaag: -0.8 m/s
85%4 cm warningclass
 06:53     17:48    Daglengte: 10:55 Donderdag 27 Feb
00:00
Voelt als: -3.0°
1008.9 hPa 1.1 mm
82%
-3.4°
3
Windvlaag: -1 m/s
72%4 cm warningclass
01:00
Voelt als: -3.2°
1009.6 hPa 1.2 mm
82%
-3.5°
3
Windvlaag: -2 m/s
74%4 cm warningclass
02:00
Voelt als: -3.4°
1010.3 hPa 1.1 mm
82%
-3.3°
3
Windvlaag: -2 m/s
79%4 cm warningclass
03:00
Voelt als: -3.3°
1010.5 hPa 1.1 mm
82%
-3.2°
3
Windvlaag: -2.1 m/s
80%5 cm warningclass
04:00
Voelt als: -3.3°
1010.7 hPa 1.0 mm
82%
-3.3°
3
Windvlaag: -2.1 m/s
61%5 cm warningclass
05:00
Voelt als: -3.1°
1011.3 hPa 1.0 mm
80%
-3.4°
3
Windvlaag: -2.3 m/s
56%5 cm warningclass
06:00
-0°
Voelt als: -3.0°
1011.9 hPa
82%
-3.0°
2
Windvlaag: -1.9 m/s
69%5 cm
07:00
-0°
Voelt als: -3.1°
1012.2 hPa
82%
-3.8°
2
Windvlaag: -1 m/s
55%5 cm
08:00
Voelt als: -3.1°
1012.3 hPa
81%
-4.0°
3
Windvlaag: -0.2 m/s
46%5 cm
09:00
Voelt als: -1.7°
1011.9 hPa
80%
-3.9°
3
Windvlaag: 0.2 m/s
26%5 cm
10:00
Voelt als: 0.4°
1010.7 hPa
80%
-6.6°
2
Windvlaag: 0.1 m/s
17%5 cm
11:00
Voelt als: 1.3°
1008.9 hPa
21%
-7.4°
2
Windvlaag: -0.4 m/s
65%5 cm
12:00
Voelt als: 3.6°
1007.1 hPa
21%
-8.0°
1
Windvlaag: -0.3 m/s
77%5 cm
13:00
Voelt als: 3.9°
1004.8 hPa
21%
-8.8°
2
Windvlaag: -0.2 m/s
98%4 cm
14:00
Voelt als: 4.3°
1002.3 hPa
21%
-8.6°
2
Windvlaag: 3.2 m/s
100%4 cm
15:00
Voelt als: 4.5°
999.9 hPa
21%
-8.3°
2
Windvlaag: 3.4 m/s
100%4 cm
16:00
Voelt als: 3.7°
998.0 hPa
21%
-7.1°
2
Windvlaag: 4.6 m/s
99%4 cm
17:00
Voelt als: 3.2°
996.2 hPa
79%
-4.2°
2
Windvlaag: 4.8 m/s
100%4 cm
18:00
Voelt als: 1.4°
995.5 hPa 1.5 mm
100%
-3.1°
2
Windvlaag: 5.1 m/s
100%4 cm
19:00
Voelt als: 0.3°
994.2 hPa 1.4 mm
100%
-2.2°
3
Windvlaag: 2.9 m/s
99%4 cm
20:00
Voelt als: 0.8°
992.6 hPa 1.6 mm
99%
-2.8°
3
Windvlaag: 2.9 m/s
86%4 cm
21:00
Voelt als: 1.2°
993.2 hPa 1.6 mm
97%
-2.4°
3
Windvlaag: 0.5 m/s
78%4 cm
22:00
Voelt als: 1.1°
996.2 hPa 1.3 mm
98%
-0.7°
3
Windvlaag: -0.6 m/s
69%4 cm
23:00
Voelt als: -0.9°
998.8 hPa 1.5 mm
99%
-1.5°
7
Windvlaag: -2.9 m/s
61%4 cm
 06:51     17:50    Daglengte: 10:59 Vrijdag 28 Feb
00:00
Voelt als: -2.2°
1000.7 hPa 2.1 mm
93%
-2.1°
8
Windvlaag: -1.8 m/s
76%4 cm
01:00
Voelt als: -3.3°
1002.2 hPa 1.9 mm
100%
-1.5°
8
Windvlaag: -0.5 m/s
70%4 cm
02:00
Voelt als: -4.1°
1003.8 hPa 2.2 mm
100%
-1.4°
8
Windvlaag: 0 m/s
91%5 cm
03:00
Voelt als: -4.9°
1005.7 hPa 2.6 mm
100%
-1.2°
7
Windvlaag: 0.8 m/s
100%6 cm warningclass
04:00
Voelt als: -5.0°
1007.5 hPa 2.7 mm
100%
-1.0°
7
Windvlaag: 0.6 m/s
100%7 cm warningclass
05:00
Voelt als: -4.8°
1008.9 hPa 2.2 mm
100%
-0.9°
6
Windvlaag: -1.3 m/s
100%8 cm warningclass
06:00
Voelt als: -5.5°
1010.9 hPa 2.5 mm
100%
-1.9°
7
Windvlaag: -1.4 m/s
100%8 cm warningclass
07:00
-0°
Voelt als: -5.6°
1012.9 hPa 2.4 mm
100%
-3.2°
6
Windvlaag: -1.5 m/s
94%9 cm warningclass
08:00
Voelt als: -5.3°
1015.3 hPa 5.4 mm
100%
-3.7°
6
Windvlaag: 17.5 m/s
81%10 cm warningclass
09:00
Voelt als: -4.8°
1016.2 hPa 5.4 mm
100%
-3.9°
6
Windvlaag: 20 m/s
71%11 cm warningclass
10:00
Voelt als: -4.0°
1016.8 hPa 5.6 mm
100%
-4.3°
5
Windvlaag: 17.2 m/s
61%11 cm warningclass
11:00
Voelt als: -3.4°
1017.2 hPa 5.9 mm
100%
-4.5°
5
Windvlaag: 18.9 m/s
56%11 cm warningclass
12:00
Voelt als: -2.5°
1017.6 hPa 6.1 mm
100%
-4.7°
5
Windvlaag: 17.9 m/s
48%11 cm warningclass
13:00
Voelt als: -1.8°
1017.8 hPa 5.9 mm
100%
-5.3°
5
Windvlaag: 2.3 m/s
45%11 cm
14:00
Voelt als: -2.0°
1017.4 hPa 16.8 mm
100%
-5.7°
4
Windvlaag: 15.5 m/s
46%11 cm
15:00
Voelt als: -2.9°
1017.6 hPa 16.8 mm
100%
-6.3°
4
Windvlaag: 14.1 m/s
51%11 cm warningclass
16:00
Voelt als: -3.6°
1017.9 hPa 16.8 mm
100%
-7.0°
3
Windvlaag: 11.9 m/s
58%10 cm warningclass
Temp/Neerslag /Baro Onweer/DauwpuntSneeuw
    Temp Baro Neerslag Dauwpunt Wind BewolkingSneeuw  
 06:57     17:45    Daglengte: 10:48 Vandaag
19:00
Voelt als: 7.5°
1003.2 hPa   3.4°
1
90%1 cm
22:00
Voelt als: 4.0°
1002.5 hPa 2.0 mm 4.0°
2
84%1 cm
 06:55     17:47    Daglengte: 10:52 Morgen
01:00
Voelt als: 2.1°
1000.5 hPa 1.8 mm 1.6°
2
88%1 cm
04:00
Voelt als: 1.9°
999.1 hPa 0.9 mm 2.9°
2
83%1 cm
07:00
Voelt als: -0.5°
999.8 hPa 0.7 mm 0.6°
3
87%1 cm
10:00
Voelt als: -0.1°
1000.5 hPa 1.3 mm -5.6°
4
52%1 cm
13:00
Voelt als: 1.4°
999.4 hPa 1.1 mm -5.5°
4
88%1 cm
16:00
Voelt als: -0.8°
1001.0 hPa 2.1 mm -5.3°
5
87%1 cm
19:00
Voelt als: -2.2°
1004.8 hPa 3.1 mm -3.8°
3
89%4 cm warningclass
22:00
Voelt als: -3.3°
1007.6 hPa 3.0 mm -3.1°
3
87%4 cm warningclass
 06:53     17:48    Daglengte: 10:55 Donderdag 27 Feb
01:00
Voelt als: -3.2°
1009.6 hPa 3.4 mm -3.5°
3
74%4 cm warningclass
04:00
Voelt als: -3.3°
1010.7 hPa 3.3 mm -3.3°
3
61%5 cm warningclass
07:00
-0°
Voelt als: -3.1°
1012.2 hPa 1.0 mm -3.8°
2
55%5 cm warningclass
10:00
Voelt als: 0.4°
1010.7 hPa   -6.6°
2
17%5 cm
13:00
Voelt als: 3.9°
1004.8 hPa   -8.8°
2
98%4 cm
16:00
Voelt als: 3.7°
998.0 hPa   -7.1°
2
99%4 cm
19:00
Voelt als: 0.3°
994.2 hPa 2.9 mm -2.2°
3
99%4 cm
22:00
Voelt als: 1.1°
996.2 hPa 4.5 mm -0.7°
3
69%4 cm
 06:51     17:50    Daglengte: 10:59 Vrijdag 28 Feb
01:00
Voelt als: -3.3°
1002.2 hPa 5.5 mm -1.5°
8
70%4 cm
04:00
Voelt als: -5.0°
1007.5 hPa 7.5 mm -1.0°
7
100%7 cm warningclass
07:00
-0°
Voelt als: -5.6°
1012.9 hPa 7.1 mm -3.2°
6
94%9 cm warningclass
10:00
Voelt als: -4.0°
1016.8 hPa 16.4 mm -4.3°
5
61%11 cm warningclass
13:00
Voelt als: -1.8°
1017.8 hPa 17.9 mm -5.3°
5
45%11 cm
16:00
Voelt als: -3.6°
1017.9 hPa 50.5 mm -7.0°
3
58%10 cm warningclass
19:00
-3°
Voelt als: -6.3°
1018.4 hPa 50.5 mm -8.9°
2
80%10 cm warningclass
22:00
-3°
Voelt als: -6.0°
1015.3 hPa 47.8 mm -8.9°
2
84% warningclass
 06:49     17:51    Daglengte: 11:02 Zaterdag 29 Feb
01:00
-3°
Voelt als: -5.9°
1013.5 hPa 47.8 mm -8.7°
2
82% warningclass
04:00
-1°
Voelt als: -3.6°
1011.3 hPa 47.8 mm -6.4°
2
80% warningclass
07:00
Voelt als: -1.4°
1009.2 hPa 47.8 mm -4.2°
3
77%
10:00
Voelt als: 3.1°
1005.0 hPa 47.8 mm -2.1°
2
82%
13:00
Voelt als: 7.4°
1000.8 hPa 47.8 mm -0.6°
2
88%
16:00
Voelt als: 5.0°
1000.1 hPa 47.8 mm -2.2°
2
68%
19:00
Voelt als: 2.3°
999.7 hPa 47.8 mm -4.1°
2
49%
22:00
Voelt als: 2.4°
1004.5 hPa 47.8 mm -1.3°
1
70%
 06:47     17:53    Daglengte: 11:06 Zondag 01 Maa
01:00
Voelt als: 3.2°
1009.3 hPa 48.3 mm 1.1°
1
91%
04:00
1010.6 hPa 49.2 mm -0.5°
0
74%
07:00
1012.0 hPa 49.8 mm -2.8°
0
57%
10:00
Voelt als: 3.4°
1011.4 hPa 50.0 mm -3.1°
1
41%
13:00
Voelt als: 5.0°
1010.6 hPa 50.2 mm -4.2°
1
26%
16:00
Voelt als: 0.2°
1008.5 hPa 50.4 mm -5.5°
2
27%
19:00
-3°
Voelt als: -4.9°
1006.4 hPa 50.5 mm -7.5°
2
28% warningclass
22:00
-1°
Voelt als: -3.9°
1004.8 hPa 50.5 mm -6.4°
2
56% warningclass
 06:45     17:54    Daglengte: 11:09 Maandag 02 Maa
01:00
Voelt als: -2.4°
1003.1 hPa 50.6 mm -5.0°
3
83% warningclass
04:00
Voelt als: -2.4°
1002.4 hPa 50.6 mm -5.0°
2
87% warningclass
07:00
-0°
Voelt als: -2.5°
1001.8 hPa 50.6 mm -5.0°
2
91% warningclass
10:00
Voelt als: 3.3°
1000.5 hPa 50.6 mm -3.1°
1
91%
13:00
999.1 hPa 50.6 mm -1.9°
1
92%
16:00
Voelt als: 5.3°
999.9 hPa 50.6 mm 1.1°
1
92%
19:00
Voelt als: 1.6°
1001.0 hPa 50.6 mm 2.4°
2
92%
22:00
Voelt als: 1.0°
1000.7 hPa 50.6 mm 1.1°
1
82%
 06:43     17:56    Daglengte: 11:13 Dinsdag 03 Maa
01:00
Voelt als: 1.1°
1000.4 hPa 50.6 mm -0.0°
1
72%
04:00
Voelt als: 1.5°
1002.8 hPa 50.6 mm -0.4°
0
82%
07:00
1005.3 hPa 50.8 mm -0.7°
0
92%
10:00
Voelt als: 2.4°
1007.4 hPa 52.5 mm 1.0°
1
92%
13:00
Voelt als: 2.9°
1009.4 hPa 53.4 mm 2.5°
2
92%
16:00
Voelt als: 2.1°
1011.2 hPa   2.2°
1
92%
19:00
Voelt als: 1.2°
1013.2 hPa 107.6 mm 1.8°
1
92%
 06:41     17:57    Daglengte: 11:16 Woensdag 04 Maa
01:00
Voelt als: -0.5°
1016.4 hPa 110.7 mm 0.3°
2
92%
07:00
Voelt als: -1.9°
1018.6 hPa 111.7 mm -1.3°
2
90% warningclass
13:00
Voelt als: 0.0°
1017.2 hPa 111.8 mm -2.8°
3
84%
19:00
Voelt als: 1.1°
1015.7 hPa 111.8 mm -2.2°
1
72%
 06:40     17:59    Daglengte: 11:19 Donderdag 05 Maa
01:00
-5°
Voelt als: -8.0°
1009.6 hPa 113.2 mm -7.8°
2
24% warningclass
07:00
-2°
Voelt als: -2.9°
1001.6 hPa 115.7 mm -4.7°
1
92% warningclass
13:00
Voelt als: 1.5°
1003.7 hPa 130.0 mm -0.9°
3
27%
19:00
Voelt als: 0.9°
1003.3 hPa 138.8 mm -1.8°
1
92%
 06:38     18:00    Daglengte: 11:22 Vrijdag 06 Maa
01:00
-1°
Voelt als: -3.9°
1015.7 hPa 142.3 mm -3.1°
2
1% warningclass
07:00
-2°
Voelt als: -3.9°
1016.2 hPa 143.2 mm -2.8°
2
1% warningclass
13:00
Voelt als: 1.6°
1009.7 hPa 1.0 mm 0.8°
2
64%
19:00
-0°
1011.5 hPa 1.7 mm -1.4°
0
70%
 06:36     18:02    Daglengte: 11:26 Zaterdag 07 Maa
01:00
-2°
Voelt als: -3.5°
1012.4 hPa 1.4 mm -3.0°
1
61%
07:00
-3°
Voelt als: -4.9°
1011.6 hPa 0.8 mm -4.2°
2
56%
13:00
1008.5 hPa 0.6 mm 2.6°
0
58%
19:00
Voelt als: 1.3°
1008.9 hPa 1.4 mm 0.3°
0
71%
 06:34     18:03    Daglengte: 11:29 Zondag 08 Maa
01:00
Voelt als: -1.6°
1009.8 hPa 1.7 mm -1.3°
1
66%
07:00
-0°
Voelt als: -0.4°
1010.8 hPa 1.6 mm -1.3°
1
70%
13:00
Voelt als: 3.4°
1010.1 hPa 1.4 mm 2.5°
1
73%
19:00
Voelt als: 0.6°
1012.5 hPa 1.4 mm -0.3°
0
73%
 06:32     18:05    Daglengte: 11:33 Maandag 09 Maa
01:00
-0°
Voelt als: -1.7°
1013.9 hPa 0.6 mm -1.4°
1
61%
07:00
-0°
Voelt als: -0.8°
1014.3 hPa 1.2 mm -1.6°
1
60%
13:00
Voelt als: 5.3°
1012.9 hPa 1.1 mm 2.9°
1
61%
19:00
1014.5 hPa 1.3 mm 0.2°
0
67%
 06:30     18:06    Daglengte: 11:36 Dinsdag 10 Maa
01:00
-1°
Voelt als: -1.0°
1016.3 hPa 1.0 mm -1.4°
1
61%
07:00
-1°
Voelt als: -1.7°
1017.4 hPa 0.7 mm -2.2°
1
54%
13:00
Voelt als: 3.8°
1016.4 hPa 0.8 mm 2.0°
1
63%
19:00
Voelt als: 0.6°
1018.3 hPa 0.9 mm -0.4°
1
66%
 06:28     18:08    Daglengte: 11:40 Woensdag 11 Maa
01:00
-1°
Voelt als: -1.0°
1019.9 hPa 0.5 mm -2.1°
1
53%
07:00
-1°
Voelt als: -1.4°
1020.5 hPa 0.3 mm -2.5°
1
44%
13:00
Voelt als: 5.5°
1018.8 hPa 0.3 mm 2.6°
1
40%
  CAPE Lifted Index Hail Supercell Tornado SRH 3km CL BTM PRES CL TOP PRES Swiss DWD icon SMHI TS
 06:57     17:45    Daglengte: 10:48 Vandaag
17:00 0 J/kg 3.4 K 0 % 0 % 0 % 0 m²/s² 0 0 3.76 3
18:00 10 J/kg 2.9 K 0 % 0 % 0 % 0 m²/s² 0 0 3.17 3
19:00 11 J/kg 2.3 K 0 % 0 % 0 % 0 m²/s² 0 0 2.63 3
20:00 20 J/kg 1.7 K 0 % 0 % 0 % 0 m²/s² 0 0 2.09 61
21:00 23 J/kg 2.0 K 0 % 0 % 0 % 0 m²/s² 0 0 2.87 61
22:00 8 J/kg 2.9 K 0 % 0 % 0 % 0 m²/s² 0 0 7.25 61
23:00 0 J/kg 3.6 K 0 % 0 % 0 % 0 m²/s² 0 0 5.1 3
 06:55     17:47    Daglengte: 10:52 Morgen
00:00 0 J/kg 2.1 K 0 % 0 % 0 % 0 m²/s² 0 0 3.6 61
01:00 0 J/kg 2.2 K 0 % 0 % 0 % 0 m²/s² 0 0 2.47 61
02:00 3 J/kg 3.9 K 0 % 0 % 0 % 0 m²/s² 0 0 5.49 3
03:00 0 J/kg 3.7 K 0 % 0 % 0 % 0 m²/s² 0 0 5.56 80
04:00 0 J/kg 3.0 K 0 % 0 % 0 % 0 m²/s² 0 0 4.17 3
05:00 0 J/kg 2.8 K 0 % 0 % 0 % 0 m²/s² 0 0 4.21 3
06:00 0 J/kg 3.5 K 0 % 0 % 0 % 0 m²/s² 0 0 4.73 3
07:00 30 J/kg 4.0 K 0 % 0 % 0 % 0 m²/s² 0 0 6.1 85
08:00 17 J/kg 4.9 K 0 % 0 % 0 % 0 m²/s² 0 0 6.97 3
09:00 15 J/kg 4.6 K 0 % 0 % 0 % 0 m²/s² 0 0 7.12 3
10:00 37 J/kg 3.5 K 0 % 0 % 0 % 0 m²/s² 0 0 6.77 3
11:00 8 J/kg 2.1 K 0 % 0 % 0 % 0 m²/s² 0 0 5.13 3
12:00 106 J/kg -0.1 K 0 % 0 % 0 % 0 m²/s² 0 0 1.13 3
13:00 125 J/kg -1.0 K 0 % 0 % 0 % 0 m²/s² 0 0 0.71 3
14:00 155 J/kg -1.0 K 0 % 0 % 0 % 0 m²/s² 0 0 1.22 85
15:00 141 J/kg -1.1 K 0 % 0 % 0 % 0 m²/s² 0 0 0.04 85
16:00 57 J/kg -0.4 K 0 % 0 % 0 % 0 m²/s² 0 0 0.29 85
17:00 75 J/kg -0.9 K 0 % 0 % 0 % 0 m²/s² 0 0 -0.42 85
18:00 28 J/kg -1.2 K 0 % 0 % 0 % 0 m²/s² 0 0 -0.39 3
19:00 94 J/kg -0.8 K 0 % 0 % 0 % 0 m²/s² 0 0 -0.2 3
20:00 56 J/kg -0.7 K 0 % 0 % 0 % 0 m²/s² 0 0 0.26 3
21:00 52 J/kg -0.8 K 0 % 0 % 0 % 0 m²/s² 0 0 -0.23 3
22:00 85 J/kg -1.1 K 0 % 0 % 0 % 0 m²/s² 0 0 0.01 85
23:00 34 J/kg -0.5 K 0 % 0 % 0 % 0 m²/s² 0 0 0.52 85
 06:53     17:48    Daglengte: 10:55 Donderdag 27 Feb
00:00 70 J/kg -0.1 K 0 % 0 % 0 % 0 m²/s² 0 0 1.4 85
01:00 56 J/kg -0.1 K 0 % 0 % 0 % 0 m²/s² 0 0 1.13 85
02:00 84 J/kg 0.0 K 0 % 0 % 0 % 0 m²/s² 0 0 0.66 85
03:00 70 J/kg 0.1 K 0 % 0 % 0 % 0 m²/s² 0 0 1.24 2
04:00 64 J/kg 0.4 K 0 % 0 % 0 % 0 m²/s² 0 0 1.54 2
05:00 41 J/kg 1.9 K 0 % 0 % 0 % 0 m²/s² 0 0 3.7 85
06:00 42 J/kg 2.4 K 0 % 0 % 0 % 0 m²/s² 0 0 5.34 85
07:00 6 J/kg 4.1 K 0 % 0 % 0 % 0 m²/s² 0 0 6.95 85
08:00 1 J/kg 5.7 K 0 % 0 % 0 % 0 m²/s² 0 0 8.79 85
09:00 17 J/kg 7.4 K 0 % 0 % 0 % 0 m²/s² 0 0 11.33 85
10:00 18 J/kg 8.8 K 0 % 0 % 0 % 0 m²/s² 0 0 13.21 2
11:00 9 J/kg 9.9 K 0 % 0 % 0 % 0 m²/s² 0 0 14.76 1
12:00 1 J/kg 9.6 K 0 % 0 % 0 % 0 m²/s² 0 0 14.16 3
13:00 0 J/kg 9.8 K 0 % 0 % 0 % 0 m²/s² 0 0 13.13 3
14:00 0 J/kg 10.3 K 0 % 0 % 0 % 0 m²/s² 0 0 11.05 3
15:00 0 J/kg 8.7 K 0 % 0 % 0 % 0 m²/s² 0 0 9.21 3
16:00 0 J/kg 7.3 K 0 % 0 % 0 % 0 m²/s² 0 0 7.84 3
17:00 0 J/kg 6.3 K 0 % 0 % 0 % 0 m²/s² 0 0 6.72 3
18:00 0 J/kg 4.9 K 0 % 0 % 0 % 0 m²/s² 0 0 5.29 61
19:00 0 J/kg 1.7 K 0 % 0 % 0 % 0 m²/s² 0 0 1.97 61
20:00 0 J/kg 2.0 K 0 % 0 % 0 % 0 m²/s² 0 0 3.68 61
21:00 0 J/kg 1.8 K 0 % 0 % 0 % 0 m²/s² 0 0 4.17 3
22:00 0 J/kg 3.9 K 0 % 0 % 0 % 0 m²/s² 0 0 7.5 80
23:00 23 J/kg 3.8 K 0 % 0 % 0 % 0 m²/s² 0 0 5.51 2
 06:51     17:50    Daglengte: 10:59 Vrijdag 28 Feb
00:00 8 J/kg 3.9 K 0 % 0 % 0 % 0 m²/s² 0 0 4.68 1
01:00 1 J/kg 4.8 K 0 % 0 % 0 % 0 m²/s² 0 0 5.46 61
02:00 0 J/kg 4.9 K 0 % 0 % 0 % 0 m²/s² 0 0 5.44 71
03:00 0 J/kg 4.4 K 0 % 0 % 0 % 0 m²/s² 0 0 4.82 71
04:00 0 J/kg 3.8 K 0 % 0 % 0 % 0 m²/s² 0 0 4.28 3
05:00 3 J/kg 3.2 K 0 % 0 % 0 % 0 m²/s² 0 0 3.47 85
06:00 1 J/kg 2.8 K 0 % 0 % 0 % 0 m²/s² 0 0 3.01 85
07:00 0 J/kg 3.1 K 0 % 0 % 0 % 0 m²/s² 0 0 3.16 85
08:00 23 J/kg 4.5 K 0 % 0 % 0 % 0 m²/s² 0 0 4.8 85
09:00 59 J/kg 5.6 K 0 % 0 % 0 % 0 m²/s² 0 0 6.47 85
10:00 76 J/kg 7.2 K 0 % 0 % 0 % 0 m²/s² 0 0 9.12 85
11:00 117 J/kg 7.8 K 0 % 0 % 0 % 0 m²/s² 0 0 9.66 85
12:00 102 J/kg 8.7 K 0 % 0 % 0 % 0 m²/s² 0 0 11.58 85
13:00 49 J/kg 9.8 K 0 % 0 % 0 % 0 m²/s² 0 0 15.95 85
14:00 21 J/kg 10.6 K 0 % 0 % 0 % 0 m²/s² 0 0 18.7
15:00 3 J/kg 11.2 K 0 % 0 % 0 % 0 m²/s² 0 0 19.33
16:00 1 J/kg 11.6 K 0 % 0 % 0 % 0 m²/s² 0 0 18.53
Temp Baro Wind Neerslag
  EWN Forecast EWN WRFDA DWD ICON FMI HIRLAM MET Norway GFS
 06:57     17:45    Daglengte: 10:48 Vandaag
19:00 8.0° 1003.2 hPa 1.5 m/s 0.0 mm 9.1° 1001.5 hPa 1.5 m/s 0.1 mm 6.7° 1003.8 hPa 0.8 m/s 0.2 mm 9.4° 1003.1 hPa 0.9 m/s 0.0 mm 8.5° 1003.2 hPa 1.3 m/s 8.2° 1004.0 hPa 0.9 m/s
22:00 5.4° 1002.5 hPa 1.8 m/s 2.0 mm 6.5° 1000.0 hPa 1.8 m/s 0.6 mm 5.1° 1003.3 hPa 1.9 m/s 2.8 mm 8.4° 1001.8 hPa 1.7 m/s 0.0 mm 5.2° 1003.6 hPa 1.0 m/s 6.6° 1002.3 hPa 1.3 m/s
 06:55     17:47    Daglengte: 10:52 Morgen
01:00 4.2° 1000.5 hPa 2.4 m/s 1.8 mm 6.7° 998.4 hPa 3.4 m/s 0.7 mm 4.1° 1002.3 hPa 1.6 m/s 2.8 mm 6.7° 1000.4 hPa 5.4 m/s 0.0 mm 3.5° 1000.1 hPa 1.7 m/s 4.9° 1000.8 hPa 0.6 m/s
04:00 3.9° 999.1 hPa 2.2 m/s 0.9 mm 4.5° 996.0 hPa 4.8 m/s 1.1 mm 4.1° 1000.6 hPa 3.3 m/s 0.8 mm 3.6° 999.4 hPa 0.7 m/s 0.0 mm 3.5° 999.2 hPa 0.9 m/s 3.8° 998.4 hPa 0.8 m/s
07:00 2.8° 999.8 hPa 3.5 m/s 0.7 mm 3.0° 996.8 hPa 6.5 m/s 1.2 mm 2.2° 1001.6 hPa 4.2 m/s 0.4 mm 2.9° 998.6 hPa 1.3 m/s 0.0 mm 2.6° 1000.7 hPa 2.6 m/s 2.9° 998.1 hPa 2.2 m/s
10:00 3.5° 1000.5 hPa 4.2 m/s 1.3 mm 2.8° 997.7 hPa 6.6 m/s 2.1 mm 1.7° 1001.9 hPa 3.9 m/s 0.2 mm 4.9° 998.1 hPa 5.6 m/s 0.0 mm 4.3° 1000.9 hPa 3.9 m/s 2.0° 999.4 hPa 3.3 m/s
13:00 4.6° 999.4 hPa 4.0 m/s 1.1 mm 4.5° 996.3 hPa 5.9 m/s 2.3 mm 2.1° 1000.8 hPa 2.7 m/s 0.3 mm 6.9° 995.3 hPa 5.1 m/s 0.0 mm 5.1° 999.9 hPa 3.9 m/s 3.5° 999.4 hPa 3.9 m/s
16:00 3.1° 1001.0 hPa 4.7 m/s 2.1 mm 3.0° 997.0 hPa 8.2 m/s 2.9 mm 0.8° 1002.5 hPa 3.6 m/s 1.5 mm 5.0° 996.3 hPa 7.5 m/s 0.0 mm 3.5° 1001.6 hPa 4.2 m/s 2.1° 1000.4 hPa 4.7 m/s
19:00 1.1° 1004.8 hPa 3.0 m/s 3.1 mm 1.7° 999.9 hPa 6.8 m/s 11.8 mm -0.3° 1006.1 hPa 1.2 m/s 0.5 mm 2.7° 1000.4 hPa 5.2 m/s 0.0 mm 1.0° 1005.8 hPa 2.3 m/s 0.1° 1004.3 hPa 2.7 m/s
22:00 0.4° 1007.6 hPa 3.4 m/s 3.0 mm 0.8° 1002.7 hPa 7.3 m/s 13.9 mm -0.7° 1008.3 hPa 1.7 m/s 0.9 mm 2.1° 1003.5 hPa 5.6 m/s 0.0 mm 0.3° 1008.9 hPa 2.3 m/s -0.3° 1006.8 hPa 1.9 m/s
 06:53     17:48    Daglengte: 10:55 Donderdag 27 Feb
01:00 0.4° 1009.6 hPa 3.2 m/s 3.4 mm 0.5° 1004.5 hPa 3.9 m/s 15.2 mm -0.7° 1010.5 hPa 1.7 m/s 1.4 mm 2.1° 1005.4 hPa 5.6 m/s 0.0 mm 0.2° 1010.8 hPa 2.3 m/s -0.0° 1008.8 hPa 2.6 m/s
04:00 0.2° 1010.7 hPa 3.1 m/s 3.3 mm 0.1° 1006.4 hPa 4.9 m/s 16.2 mm -1.2° 1012.1 hPa 1.1 m/s 0.8 mm 1.7° 1006.9 hPa 5.3 m/s 0.0 mm 0.3° 1011.2 hPa 2.0 m/s -0.4° 1010.2 hPa 2.2 m/s
07:00 -0.2° 1012.2 hPa 2.4 m/s 1.0 mm -0.7° 1008.5 hPa 4.2 m/s 17.2 mm -1.8° 1013.5 hPa 2.0 m/s 0.7 mm 1.0° 1009.3 hPa 3.9 m/s 0.0 mm -0.1° 1012.5 hPa 0.1 m/s -0.7° 1013.2 hPa 1.7 m/s
10:00 2.2° 1010.7 hPa 1.8 m/s 0.0 mm 2.1° 1008.3 hPa 7.2 m/s 17.4 mm 0.9° 1012.1 hPa 1.5 m/s 0.4 mm 3.4° 1010.3 hPa 1.3 m/s 2.3° 1011.8 hPa 1.8 m/s
13:00 5.2° 1004.8 hPa 1.7 m/s 0.0 mm 3.5° 1004.5 hPa 2.8 m/s 17.4 mm 3.2° 1005.5 hPa 2.8 m/s 0.0 mm 6.4° 1004.4 hPa 1.6 m/s 4.3° 1008.0 hPa 2.1 m/s
16:00 5.4° 998.0 hPa 2.2 m/s 0.0 mm 5.4° 997.1 hPa 5.6 m/s 17.4 mm 4.4° 998.2 hPa 1.8 m/s 0.0 mm 6.0° 998.2 hPa 1.2 m/s 4.3° 1001.6 hPa 2.6 m/s
19:00 3.1° 994.2 hPa 2.9 m/s 2.9 mm 5.1° 989.5 hPa 8.1 m/s 20.1 mm 2.9° 996.5 hPa 3.8 m/s 0.2 mm 2.0° 994.3 hPa 1.7 m/s 1.2° 1000.6 hPa 3.9 m/s
22:00 3.9° 996.2 hPa 3.1 m/s 4.5 mm 5.8° 989.0 hPa 12.4 m/s 22.3 mm 3.9° 998.4 hPa 2.1 m/s 0.5 mm 2.1° 997.1 hPa 1.5 m/s 1.3° 998.2 hPa 3.8 m/s
 06:51     17:50    Daglengte: 10:59 Vrijdag 28 Feb
01:00 2.3° 1002.2 hPa 7.6 m/s 5.5 mm 1.0° 992.4 hPa 13.7 m/s 23.4 mm 1.3° 1002.9 hPa 9.1 m/s 0.3 mm 2.2° 1005.2 hPa 5.8 m/s 0.3° 1000.7 hPa 4.1 m/s
04:00 0.7° 1007.5 hPa 7.0 m/s 7.5 mm -0.5° 999.8 hPa 11.4 m/s 30.3 mm -0.1° 1008.3 hPa 8.7 m/s 0.7 mm 0.6° 1010.1 hPa 4.2 m/s 0.9° 1004.6 hPa 7.7 m/s
07:00 -0.0° 1012.9 hPa 6.2 m/s 7.1 mm -0.4° 1005.7 hPa 7.1 m/s 39.6 mm -0.8° 1013.1 hPa 6.3 m/s 1.5 mm -0.1° 1016.3 hPa 5.2 m/s 0.1° 1010.6 hPa 8.2 m/s
10:00 0.9° 1016.8 hPa 5.4 m/s 16.4 mm 0.5° 1012.6 hPa 9.1 m/s 47.0 mm -0.4° 1018.4 hPa 5.5 m/s 1.1 mm 1.6° 1017.0 hPa 4.6 m/s 0.9° 1015.8 hPa 8.3 m/s
13:00 2.6° 1017.8 hPa 5.2 m/s 17.9 mm 2.2° 1014.8 hPa 11.0 m/s 50.2 mm 1.3° 1020.4 hPa 5.3 m/s 1.7 mm 3.2° 1017.7 hPa 4.0 m/s 3.1° 1017.4 hPa 5.9 m/s
16:00 0.1° 1017.9 hPa 3.3 m/s 50.5 mm 2.7° 1016.3 hPa 7.2 m/s 50.5 mm -0.3° 1018.2 hPa 2.7 m/s 3.6° 1017.4 hPa 3.1 m/s
19:00 -3.5° 1018.4 hPa 1.9 m/s 50.5 mm -1.4° 1017.2 hPa 4.9 m/s 50.5 mm -3.8° 1018.6 hPa 1.4 m/s -1.2° 1020.1 hPa 1.8 m/s
22:00 -3.0° 1015.3 hPa 2.0 m/s 47.8 mm -3.1° 1014.8 hPa 2.0 m/s -2.6° 1021.1 hPa 2.2 m/s 47.8 mm
 06:49     17:51    Daglengte: 11:02 Zaterdag 29 Feb
01:00 -2.6° 1013.5 hPa 2.3 m/s 47.8 mm -2.7° 1012.9 hPa 2.3 m/s -1.7° 1020.0 hPa 2.2 m/s 47.8 mm
04:00 -0.6° 1011.3 hPa 2.5 m/s 47.8 mm -0.5° 1010.7 hPa 2.5 m/s -0.6° 1018.1 hPa 2.6 m/s 47.8 mm
07:00 1.4° 1009.2 hPa 2.6 m/s 47.8 mm 1.6° 1008.5 hPa 2.6 m/s -0.2° 1016.6 hPa 2.7 m/s 47.8 mm
10:00 5.1° 1005.0 hPa 2.4 m/s 47.8 mm 5.1° 1004.2 hPa 2.3 m/s 4.7° 1013.4 hPa 3.0 m/s 47.8 mm
13:00 8.5° 1000.8 hPa 2.1 m/s 47.8 mm 8.6° 1000.0 hPa 2.0 m/s 7.9° 1009.5 hPa 3.1 m/s 47.8 mm
16:00 6.5° 1000.1 hPa 2.1 m/s 47.8 mm 6.4° 999.5 hPa 2.0 m/s 7.2° 1006.6 hPa 3.1 m/s 47.8 mm
19:00 4.2° 999.7 hPa 2.1 m/s 47.8 mm 4.2° 999.0 hPa 2.0 m/s 3.8° 1007.8 hPa 3.5 m/s 47.8 mm
22:00 3.6° 1004.5 hPa 1.4 m/s 47.8 mm 3.8° 1004.1 hPa 1.2 m/s 1.0° 1008.6 hPa 3.2 m/s 47.8 mm
 06:47     17:53    Daglengte: 11:06 Zondag 01 Maa
01:00 3.2° 1009.3 hPa 0.5 m/s 48.3 mm 3.4° 1009.2 hPa 0.5 m/s 1.4° 1010.6 hPa 1.0 m/s 48.3 mm
04:00 2.4° 1010.6 hPa 0.4 m/s 49.2 mm 2.4° 1010.6 hPa 0.4 m/s 2.6° 1011.2 hPa 0.5 m/s 49.2 mm
07:00 1.4° 1012.0 hPa 0.3 m/s 49.8 mm 1.3° 1012.0 hPa 0.3 m/s 2.0° 1012.1 hPa 0.8 m/s 49.8 mm
10:00 3.7° 1011.4 hPa 0.9 m/s 50.0 mm 3.7° 1011.3 hPa 0.9 m/s 4.4° 1012.3 hPa 0.9 m/s 50.0 mm
13:00 6.0° 1010.6 hPa 1.5 m/s 50.2 mm 6.0° 1010.6 hPa 1.6 m/s 5.5° 1011.0 hPa 0.3 m/s 50.2 mm
16:00 1.9° 1008.5 hPa 1.6 m/s 50.4 mm 1.6° 1008.4 hPa 1.6 m/s 4.7° 1009.6 hPa 1.5 m/s 50.4 mm
19:00 -2.5° 1006.4 hPa 1.7 m/s 50.5 mm -2.8° 1006.1 hPa 1.6 m/s 0.3° 1010.1 hPa 2.4 m/s 50.5 mm
22:00 -1.1° 1004.8 hPa 2.2 m/s 50.5 mm -1.1° 1004.3 hPa 2.1 m/s -0.8° 1010.4 hPa 2.9 m/s 50.5 mm
 06:45     17:54    Daglengte: 11:09 Maandag 02 Maa
01:00 0.6° 1003.1 hPa 2.6 m/s 50.6 mm 0.6° 1002.5 hPa 2.6 m/s 0.9° 1009.7 hPa 2.4 m/s 50.6 mm
04:00 0.3° 1002.4 hPa 2.2 m/s 50.6 mm 0.2° 1001.8 hPa 2.2 m/s 0.6° 1009.4 hPa 1.8 m/s 50.6 mm
07:00 -0.2° 1001.8 hPa 1.9 m/s 50.6 mm -0.1° 1001.1 hPa 1.9 m/s -0.7° 1009.0 hPa 1.7 m/s 50.6 mm
10:00 4.1° 1000.5 hPa 1.3 m/s 50.6 mm 4.0° 999.9 hPa 1.2 m/s 5.3° 1006.9 hPa 1.3 m/s 50.6 mm
13:00 8.1° 999.1 hPa 0.7 m/s 50.6 mm 8.1° 998.7 hPa 0.6 m/s 7.7° 1003.4 hPa 1.3 m/s 50.6 mm
16:00 5.8° 999.9 hPa 1.2 m/s 50.6 mm 5.7° 999.9 hPa 1.2 m/s 7.4° 1000.3 hPa 1.4 m/s 50.6 mm
19:00 3.3° 1001.0 hPa 1.9 m/s 50.6 mm 3.2° 1001.1 hPa 1.8 m/s 4.5° 999.9 hPa 2.4 m/s 50.6 mm
22:00 2.3° 1000.7 hPa 1.3 m/s 50.6 mm 2.2° 1000.8 hPa 1.2 m/s 3.4° 1000.2 hPa 2.4 m/s 50.6 mm
 06:43     17:56    Daglengte: 11:13 Dinsdag 03 Maa
01:00 1.3° 1000.4 hPa 0.8 m/s 50.6 mm 1.1° 1000.4 hPa 0.7 m/s 3.1° 1000.3 hPa 1.8 m/s 50.6 mm
04:00 1.5° 1002.8 hPa 0.5 m/s 50.6 mm 1.4° 1003.0 hPa 0.5 m/s 2.8° 1000.9 hPa 0.3 m/s 50.6 mm
07:00 1.8° 1005.3 hPa 0.3 m/s 50.8 mm 1.7° 1005.5 hPa 0.3 m/s 2.5° 1003.6 hPa 0.4 m/s 50.8 mm
10:00 3.0° 1007.4 hPa 1.1 m/s 52.5 mm 3.0° 1007.5 hPa 1.0 m/s 3.4° 1006.4 hPa 1.7 m/s 52.5 mm
13:00 4.3° 1009.4 hPa 1.7 m/s 53.4 mm 4.3° 1009.5 hPa 1.7 m/s 4.4° 1008.3 hPa 1.8 m/s 53.4 mm
16:00 3.2° 1011.2 hPa 1.4 m/s 53.7 mm 3.1° 1011.3 hPa 1.4 m/s 4.8° 1010.3 hPa 1.7 m/s 53.7 mm
19:00 1.9° 1013.2 hPa 1.1 m/s 54.0 mm 1.9° 1013.1 hPa 1.1 m/s 2.3° 1013.9 hPa 0.8 m/s 54.0 mm
 06:41     17:57    Daglengte: 11:16 Woensdag 04 Maa
01:00 1.5° 1016.4 hPa 1.8 m/s 55.8 mm 1.4° 1016.3 hPa 1.9 m/s 2.2° 1017.6 hPa 0.7 m/s 55.8 mm
07:00 0.2° 1018.6 hPa 1.7 m/s 55.9 mm 0.2° 1018.7 hPa 1.7 m/s 0.2° 1017.8 hPa 2.0 m/s 55.9 mm
13:00 2.8° 1017.2 hPa 2.9 m/s 55.9 mm 2.3° 1017.5 hPa 3.0 m/s 8.8° 1013.7 hPa 1.3 m/s 55.9 mm
19:00 1.9° 1015.7 hPa 1.1 m/s 55.9 mm 1.7° 1016.1 hPa 1.0 m/s 4.4° 1011.4 hPa 2.6 m/s 55.9 mm
 06:40     17:59    Daglengte: 11:19 Donderdag 05 Maa
01:00 -4.7° 1009.6 hPa 2.1 m/s 57.3 mm -5.7° 1009.8 hPa 1.9 m/s 6.0° 1007.2 hPa 3.8 m/s 57.3 mm
07:00 -1.6° 1001.6 hPa 1.1 m/s 58.0 mm -2.3° 1001.3 hPa 1.1 m/s 6.2° 1005.4 hPa 1.7 m/s 58.0 mm
13:00 4.1° 1003.7 hPa 2.9 m/s 66.3 mm 4.1° 1003.2 hPa 2.8 m/s 3.7° 1009.0 hPa 3.5 m/s 66.3 mm
19:00 2.2° 1003.3 hPa 1.4 m/s 70.4 mm 2.3° 1002.4 hPa 1.3 m/s 1.3° 1013.4 hPa 2.8 m/s 70.4 mm
 06:38     18:00    Daglengte: 11:22 Vrijdag 06 Maa
01:00 -1.3° 1015.7 hPa 1.9 m/s 71.3 mm -1.3° 1015.7 hPa 1.9 m/s 71.3 mm
07:00 -1.7° 1016.2 hPa 1.7 m/s 71.8 mm -1.7° 1016.2 hPa 1.7 m/s 71.8 mm
13:00 3.2° 1009.7 hPa 1.8 m/s 1.0 mm
19:00 -0.2° 1011.5 hPa 0.3 m/s 1.7 mm
 06:36     18:02    Daglengte: 11:26 Zaterdag 07 Maa
01:00 -1.6° 1012.4 hPa 1.5 m/s 1.4 mm
07:00 -2.6° 1011.6 hPa 1.6 m/s 0.8 mm
13:00 4.8° 1008.5 hPa 0.1 m/s 0.6 mm
19:00 1.3° 1008.9 hPa 0.3 m/s 1.4 mm
 06:34     18:03    Daglengte: 11:29 Zondag 08 Maa
01:00 0.1° 1009.8 hPa 1.4 m/s 1.7 mm
07:00 -0.1° 1010.8 hPa 0.8 m/s 1.6 mm
13:00 4.5° 1010.1 hPa 1.5 m/s 1.4 mm
19:00 0.6° 1012.5 hPa 0.4 m/s 1.4 mm
 06:32     18:05    Daglengte: 11:33 Maandag 09 Maa
01:00 -0.2° 1013.9 hPa 1.3 m/s 0.6 mm
07:00 -0.2° 1014.3 hPa 0.9 m/s 1.2 mm
13:00 5.3° 1012.9 hPa 0.8 m/s 1.1 mm
19:00 1.1° 1014.5 hPa 0.4 m/s 1.3 mm
 06:30     18:06    Daglengte: 11:36 Dinsdag 10 Maa
01:00 -0.6° 1016.3 hPa 0.8 m/s 1.0 mm
07:00 -1.1° 1017.4 hPa 0.9 m/s 0.7 mm
13:00 4.7° 1016.4 hPa 1.3 m/s 0.8 mm
19:00 0.6° 1018.3 hPa 0.5 m/s 0.9 mm
 06:28     18:08    Daglengte: 11:40 Woensdag 11 Maa
01:00 -0.9° 1019.9 hPa 0.7 m/s 0.5 mm
07:00 -1.0° 1020.5 hPa 0.8 m/s 0.3 mm
13:00 5.6° 1018.8 hPa 1.0 m/s 0.3 mm
FMI Hirlam - 7.5 km EWN WRFDA - 12 km DWD ICON - 7 km GFS - 25 km Basiskaart






























































Updatetijd (Europe/Brussels) Resolutie Lengte Stap
FMI Hirlam 13:00, 19:00, 01:00, 07:00 7.5 km 49h 1h
EWN WRFDA 14:15, 20:15, 02:15, 08:15 12 km 73h 1h
DWD ICON 10:45, 16:45, 22:45, 04:45 7 km 75h 1h
GFS 13:00, 19:00, 01:00, 07:00 25 km 237h 3h
30+ mm
25-30 mm
20-25 mm
15-20 mm
10-15 mm
6-10 mm
4-6 mm
2-4 mm
1-2 mm
0.5-1 mm
0.2-0.5 mm
0.1-0.2 mm
30+ mm
25-30 mm
20-25 mm
15-20 mm
10-15 mm
6-10 mm
4-6 mm
2-4 mm
1-2 mm
0.5-1 mm
0.2-0.5 mm
0.1-0.2 mm
Sneeuwval
Natte sneeuw
Hagel
Vorst
30+ mm
25-30 mm
20-25 mm
15-20 mm
10-15 mm
6-10 mm
4-6 mm
2-4 mm
1-2 mm
0.5-1 mm
0.2-0.5 mm
0.1-0.2 mm
Sneeuwval
Natte sneeuw
Hagel
Vorst
Onweer
50 mm
40 mm
30 mm
26 mm
22 mm
18 mm
14 mm
10 mm
9 mm
8 mm
7 mm
6 mm
5 mm
4.5 mm
4 mm
3.5 mm
3 mm
2.5 mm
2 mm
1.5 mm
1 mm
0.8 mm
0.6 mm
0.4 mm
0.2 mm
0.05 mm
35°
30°
25°
20°
15°
10°
-5°
-10°
-15°
-20°
-25°
-30°
-35°
33> m/s
29 m/s
25 m/s
21 m/s
17 m/s
14 m/s
11 m/s
8 m/s
5 m/s
3 m/s
0 m/s
2600 J/kg
2400 J/kg
2200 J/kg
2000 J/kg
1800 J/kg
1600 J/kg
1400 J/kg
1200 J/kg
1000 J/kg
800 J/kg
600 J/kg
400 J/kg
200 J/kg
70 dBZ
65 dBZ
60 dBZ
55 dBZ
50 dBZ
45 dBZ
40 dBZ
35 dBZ
30 dBZ
25 dBZ
20 dBZ
15 dBZ
10 dBZ
5 dBZ
-1 K
-2 K
-3 K
-4 K
-5 K
-6 K
-7 K
-8 K
-9 K
950 m²/s²
900 m²/s²
850 m²/s²
800 m²/s²
750 m²/s²
700 m²/s²
650 m²/s²
600 m²/s²
550 m²/s²
500 m²/s²